Hourly Weather Goianinha

Today, 7 May, Friday

Time Temperature Precipitation Wind Pressure Humidity
00:00 +26°C° 0 mm 3 mps 754 mmHg 89%
01:00 +25°C° 0 mm 3 mps 754 mmHg 90%
02:00 +25°C° 0 mm 3 mps 753 mmHg 91%
03:00 +25°C° 0 mm 3 mps 753 mmHg 91%
04:00 +25°C° 0 mm 2 mps 753 mmHg 92%
05:00 +25°C° 0 mm 2 mps 753 mmHg 92%
06:00 +25°C° 0 mm 2 mps 754 mmHg 91%
07:00 +25°C° 0 mm 2 mps 754 mmHg 91%
08:00 +27°C° 0 mm 2 mps 754 mmHg 83%
09:00 +28°C° 0 mm 3 mps 755 mmHg 75%
10:00 +30°C° 0 mm 3 mps 755 mmHg 68%
11:00 +32°C° 0 mm 4 mps 755 mmHg 64%
12:00 +33°C° 0 mm 4 mps 754 mmHg 60%
13:00 +34°C° 0 mm 4 mps 754 mmHg 56%
14:00 +33°C° 0 mm 5 mps 753 mmHg 57%
15:00 +33°C° 0 mm 5 mps 753 mmHg 59%
16:00 +32°C° 0 mm 5 mps 753 mmHg 61%
17:00 +30°C° 0 mm 4 mps 753 mmHg 68%
18:00 +28°C° 0 mm 4 mps 753 mmHg 75%
19:00 +27°C° 0 mm 3 mps 754 mmHg 81%
20:00 +27°C° 0 mm 3 mps 754 mmHg 83%
21:00 +26°C° 0 mm 3 mps 755 mmHg 85%
22:00 +26°C° 0 mm 2 mps 755 mmHg 86%
23:00 +26°C° 0 mm 2 mps 755 mmHg 88%

Tomorrow, 8 May, Saturday

Time Temperature Precipitation Wind Pressure Humidity
00:00 +25°C° 0 mm 2 mps 755 mmHg 89%
01:00 +25°C° 0 mm 2 mps 754 mmHg 90%
02:00 +25°C° 0.2 mm 2 mps 754 mmHg 91%
03:00 +25°C° 0.2 mm 2 mps 754 mmHg 92%
04:00 +24°C° 0.2 mm 2 mps 754 mmHg 92%
05:00 +25°C° 0.1 mm 2 mps 754 mmHg 91%
06:00 +25°C° 0.1 mm 2 mps 754 mmHg 90%
07:00 +25°C° 0.1 mm 2 mps 755 mmHg 89%
08:00 +27°C° 0 mm 2 mps 755 mmHg 82%
09:00 +29°C° 0 mm 3 mps 755 mmHg 74%
10:00 +32°C° 0 mm 4 mps 755 mmHg 66%
11:00 +32°C° 0.1 mm 4 mps 755 mmHg 63%
12:00 +33°C° 0.1 mm 4 mps 754 mmHg 61%
13:00 +33°C° 0.1 mm 5 mps 754 mmHg 58%
14:00 +33°C° 0 mm 5 mps 754 mmHg 58%
15:00 +33°C° 0 mm 5 mps 753 mmHg 59%
16:00 +32°C° 0 mm 5 mps 753 mmHg 59%
17:00 +30°C° 0 mm 4 mps 753 mmHg 67%
18:00 +28°C° 0 mm 4 mps 753 mmHg 75%
19:00 +27°C° 0 mm 3 mps 754 mmHg 83%
20:00 +26°C° 0.1 mm 3 mps 754 mmHg 86%
21:00 +26°C° 0.1 mm 3 mps 754 mmHg 88%
22:00 +26°C° 0.1 mm 3 mps 755 mmHg 90%
23:00 +25°C° 0.2 mm 3 mps 754 mmHg 91%

Day after tomorrow, 9 May, Sunday

Time Temperature Precipitation Wind Pressure Humidity
00:00 +25°C° 0.2 mm 3 mps 754 mmHg 92%
01:00 +25°C° 0.2 mm 3 mps 754 mmHg 92%
02:00 +25°C° 0 mm 3 mps 754 mmHg 93%
03:00 +24°C° 0 mm 3 mps 754 mmHg 93%
04:00 +24°C° 0 mm 3 mps 753 mmHg 94%
05:00 +24°C° 0 mm 3 mps 753 mmHg 94%
06:00 +24°C° 0 mm 3 mps 754 mmHg 93%
07:00 +24°C° 0 mm 3 mps 754 mmHg 93%
08:00 +26°C° 0 mm 3 mps 754 mmHg 84%
09:00 +28°C° 0 mm 4 mps 754 mmHg 76%
10:00 +30°C° 0 mm 4 mps 754 mmHg 67%
11:00 +32°C° 0 mm 5 mps 754 mmHg 62%
12:00 +33°C° 0 mm 5 mps 753 mmHg 57%
13:00 +34°C° 0 mm 5 mps 753 mmHg 52%
14:00 +34°C° 0 mm 5 mps 753 mmHg 54%
15:00 +33°C° 0 mm 5 mps 752 mmHg 56%
16:00 +33°C° 0 mm 5 mps 752 mmHg 58%
17:00 +30°C° 0 mm 5 mps 752 mmHg 67%
18:00 +29°C° 0 mm 4 mps 753 mmHg 75%
19:00 +27°C° 0 mm 3 mps 753 mmHg 83%
20:00 +26°C° 0.1 mm 3 mps 753 mmHg 86%
21:00 +26°C° 0.1 mm 3 mps 754 mmHg 88%
22:00 +25°C° 0.1 mm 3 mps 754 mmHg 90%
23:00 +25°C° 0.1 mm 3 mps 754 mmHg 90%

10 May, Monday

Time Temperature Precipitation Wind Pressure Humidity
00:00 +25°C° 0.1 mm 3 mps 754 mmHg 90%
01:00 +25°C° 0.1 mm 3 mps 754 mmHg 90%
02:00 +25°C° 0 mm 3 mps 753 mmHg 91%
03:00 +25°C° 0 mm 3 mps 753 mmHg 92%
04:00 +23°C° 0 mm 4 mps 753 mmHg 92%
05:00 +23°C° 0 mm 4 mps 753 mmHg 92%
06:00 +23°C° 0 mm 4 mps 753 mmHg 92%
07:00 +23°C° 0 mm 4 mps 754 mmHg 92%
08:00 +26°C° 0 mm 5 mps 754 mmHg 84%
09:00 +28°C° 0 mm 5 mps 754 mmHg 76%
10:00 +30°C° 0 mm 6 mps 754 mmHg 68%
11:00 +32°C° 0.2 mm 6 mps 754 mmHg 66%
12:00 +32°C° 0.2 mm 6 mps 753 mmHg 65%
13:00 +32°C° 0.2 mm 7 mps 753 mmHg 63%
14:00 +32°C° 0.1 mm 7 mps 752 mmHg 60%
15:00 +32°C° 0.1 mm 7 mps 752 mmHg 57%
16:00 +32°C° 0.1 mm 7 mps 752 mmHg 54%
17:00 +30°C° 0 mm 6 mps 752 mmHg 62%
18:00 +28°C° 0 mm 5 mps 752 mmHg 70%
19:00 +26°C° 0 mm 4 mps 753 mmHg 78%
20:00 +26°C° 0 mm 3 mps 753 mmHg 81%
21:00 +26°C° 0 mm 3 mps 754 mmHg 85%
22:00 +25°C° 0 mm 3 mps 754 mmHg 88%
23:00 +25°C° 0 mm 3 mps 754 mmHg 89%

11 May, Tuesday

Time Temperature Precipitation Wind Pressure Humidity
00:00 +25°C° 0 mm 3 mps 753 mmHg 90%
01:00 +25°C° 0 mm 3 mps 753 mmHg 91%
02:00 +24°C° 0 mm 3 mps 753 mmHg 92%
03:00 +24°C° 0 mm 3 mps 752 mmHg 92%
04:00 +23°C° 0 mm 4 mps 752 mmHg 93%
05:00 +24°C° 0 mm 3 mps 752 mmHg 92%
06:00 +25°C° 0 mm 3 mps 753 mmHg 91%
07:00 +25°C° 0 mm 3 mps 753 mmHg 90%
08:00 +26°C° 0.3 mm 4 mps 753 mmHg 84%
09:00 +28°C° 0.3 mm 5 mps 753 mmHg 78%
10:00 +29°C° 0.3 mm 5 mps 754 mmHg 72%
11:00 +30°C° 0.5 mm 6 mps 753 mmHg 69%
12:00 +32°C° 0.5 mm 6 mps 753 mmHg 66%
13:00 +32°C° 0.5 mm 6 mps 752 mmHg 64%
14:00 +32°C° 0.5 mm 6 mps 752 mmHg 65%
15:00 +30°C° 0.5 mm 6 mps 752 mmHg 66%
16:00 +30°C° 0.5 mm 5 mps 751 mmHg 67%
17:00 +29°C° 0.2 mm 5 mps 752 mmHg 74%
18:00 +27°C° 0.2 mm 4 mps 752 mmHg 80%
19:00 +26°C° 0.2 mm 3 mps 753 mmHg 86%
20:00 +26°C° 0.1 mm 3 mps 753 mmHg 88%
21:00 +26°C° 0.1 mm 3 mps 754 mmHg 90%
22:00 +25°C° 0.1 mm 3 mps 754 mmHg 91%
23:00 +25°C° 0.1 mm 3 mps 754 mmHg 92%

12 May, Wednesday

Time Temperature Precipitation Wind Pressure Humidity
00:00 +25°C° 0.1 mm 3 mps 753 mmHg 92%
01:00 +25°C° 0.1 mm 3 mps 753 mmHg 93%
02:00 +24°C° 0 mm 3 mps 753 mmHg 93%
03:00 +24°C° 0 mm 3 mps 753 mmHg 94%
04:00 +24°C° 0 mm 3 mps 752 mmHg 94%
05:00 +24°C° 0 mm 3 mps 753 mmHg 94%
06:00 +24°C° 0 mm 3 mps 753 mmHg 93%
07:00 +24°C° 0 mm 3 mps 753 mmHg 93%
08:00 +26°C° 0.1 mm 4 mps 754 mmHg 85%
09:00 +28°C° 0.1 mm 4 mps 754 mmHg 77%
10:00 +30°C° 0.1 mm 5 mps 754 mmHg 70%
11:00 +32°C° 0.1 mm 5 mps 754 mmHg 65%
12:00 +33°C° 0.1 mm 5 mps 753 mmHg 60%
13:00 +34°C° 0.1 mm 6 mps 753 mmHg 55%
14:00 +33°C° 0.1 mm 6 mps 752 mmHg 57%
15:00 +33°C° 0.1 mm 6 mps 752 mmHg 60%
16:00 +32°C° 0.1 mm 6 mps 752 mmHg 62%
17:00 +30°C° 0.1 mm 5 mps 752 mmHg 70%
18:00 +28°C° 0.1 mm 4 mps 753 mmHg 78%
19:00 +27°C° 0.1 mm 3 mps 753 mmHg 86%
20:00 +26°C° 0.2 mm 3 mps 753 mmHg 88%
21:00 +26°C° 0.2 mm 3 mps 754 mmHg 90%
22:00 +25°C° 0.2 mm 3 mps 754 mmHg 91%
23:00 +25°C° 0.4 mm 3 mps 754 mmHg 92%
Show more